Location: �mondeville
(49.4591°N, 1.3431°W)
Time: 02:13:48
(UTC+00:00)

Daily predictions for brighter satellites

Satellite Brightness Start Highest point End
(mag) Time Altitude Azimuth Time Altitude Azimuth Time Altitude Azimuth
ATLAS 3B R/B 4.4 02:03:16 26° E 02:03:16 26° E 02:06:28 10° E
Cosmos 2333 Rocket 4.5 02:09:34 19° ENE 02:09:34 19° ENE 02:11:39 10° NE
CENTAUR R/B 3.8 02:09:11 49° NE 02:09:11 49° NE 02:16:38 10° ESE
SL-16 R/B 4.5 02:21:46 18° NNE 02:21:46 18° NNE 02:23:13 10° NNE
Cosmos 2219 Rocket 4.3 02:21:45 22° ENE 02:21:45 22° ENE 02:24:06 10° NE
ATLAS 2AS CENTAUR R/B 3.9 02:33:41 40° ESE 02:33:55 40° ESE 02:41:15 10° NE
Cosmos 2237 Rocket 4.4 02:33:53 18° ESE 02:34:07 19° E 02:37:55 10° ENE
ADEOS II 4.1 02:40:10 10° NNE 02:42:04 23° NNE 02:42:04 23° NNE
Cosmos 2322 Rocket 4.2 02:49:25 20° N 02:49:25 20° N 02:51:18 10° NNE
COSMOS 2455 4.0 02:53:16 39° NNE 02:53:16 39° NNE 02:56:55 10° NE
Cosmos 2360 Rocket 3.9 02:56:37 26° NNE 02:56:37 26° NNE 02:59:09 10° NNE
COSMOS 2428 3.8 02:59:32 40° NE 02:59:32 40° NE 03:03:13 10° NNE
USA 267 3.8 03:00:32 10° ENE 03:06:48 46° SE 03:06:48 46° SE
IDEFIX/ARIANE 42P 4.2 03:06:27 10° NNE 03:11:05 31° E 03:12:29 27° ESE
CZ-2D R/B 4.5 03:07:15 10° N 03:07:56 13° N 03:07:56 13° N
NOSS 3-2 (C) 4.0 03:25:52 67° SSW 03:25:52 67° SSW 03:33:21 10° SSE
Cosmos 2278 Rocket 4.2 03:40:16 16° SSE 03:40:16 16° SSE 03:41:19 10° SSE
USA 234 3.1 03:35:50 10° ESE 03:42:24 87° NNE 03:43:47 60° NW
BREEZE-M R/B 3.6 03:43:48 85° ESE 03:43:48 85° ESE 03:52:27 10° E
NOSS 3-4 (A) 3.8 03:42:55 51° S 03:44:06 60° SE 03:50:24 10° NE
NOSS 3-4 (C) 3.8 03:42:58 50° S 03:44:12 60° SE 03:50:31 10° NE
Cosmos 2333 Rocket 2.5 03:51:35 53° NNW 03:51:35 53° NNW 03:56:29 10° NNE
ARIANE 5 R/B 4.2 03:46:30 10° N 03:48:27 22° NNW 03:48:27 22° NNW
NOSS 0 Rocket 3.9 03:49:59 60° S 03:51:08 80° ESE 03:57:22 10° NNE
ATLAS 3B R/B 2.5 03:50:37 66° W 03:51:22 73° SW 03:58:11 10° SSE
Cosmos 1025 Rocket 4.4 03:54:17 30° N 03:54:17 30° N 03:56:29 10° N
Cosmos 614 Rocket 4.2 03:53:33 57° SSE 03:54:24 68° ESE 03:59:35 10° NNE
PSLV R/B 3.9 03:52:42 10° NNE 03:56:27 60° ENE 03:56:27 60° ENE
Gblst 52 Del rocket 3.9 03:56:46 81° WNW 03:57:04 90° NNW 04:02:49 10° ESE
Cosmos 1140 Rocket 4.2 03:56:21 29° SSE 03:58:43 51° ESE 04:03:44 10° NNE
USA 32 4.0 03:57:48 49° S 03:59:16 81° E 04:04:33 10° N
CENTAUR R/B 3.1 03:56:28 40° WNW 03:59:33 64° SW 04:08:06 10° SSE
Cosmos 1709 Rocket 4.3 04:00:40 48° NW 04:00:40 48° NW 04:06:11 10° N
Cosmos 44 Rocket 3.6 04:00:25 50° N 04:01:21 61° NE 04:05:59 10° SE
Resurs 1-4 Rocket 4.5 03:59:42 10° NNW 03:59:48 10° NNW 03:59:48 10° NNW
Cosmos 2219 Rocket 2.6 04:03:29 46° NW 04:03:29 46° NW 04:08:23 10° NNE
SL-16 R/B 4.2 04:03:38 14° NNW 04:03:38 14° NNW 04:06:21 10° N
ADEOS 3.6 03:58:38 10° NNE 04:03:54 78° ESE 04:05:55 39° S
BREEZE-M DEB (TANK) 2.6 04:07:06 69° ESE 04:07:06 69° ESE 04:09:30 10° E
Cosmos 2184 Rocket 4.0 04:04:20 12° S 04:10:05 85° E 04:16:26 10° N
Nadezhda 3 Rocket 4.2 04:08:53 10° N 04:15:18 73° E 04:21:37 10° SSE
Cosmos 2344 4.5 04:06:00 10° NW 04:15:21 76° NE 04:28:22 10° SE
Meteor 1-4 Rocket 3.1 04:16:22 52° ESE 04:16:31 53° E 04:19:55 10° NNE
Cosmos 2237 Rocket 2.1 04:15:45 47° SW 04:17:28 82° WNW 04:23:13 10° NNE
ERBS 3.6 04:19:30 34° NNE 04:19:30 34° NNE 04:21:47 10° NE
Cosmos 389 Rocket 3.5 04:19:54 37° NNE 04:19:54 37° NNE 04:22:09 10° NNE
NOSS 2-2 (C) 4.5 04:21:49 33° NNW 04:21:49 33° NNW 04:25:29 10° NNE
Meteor 1-21 4.2 04:20:26 51° WSW 04:21:21 57° WNW 04:26:57 10° N
CZ-2C R/B 3.2 04:18:25 10° NNE 04:23:33 55° E 04:28:34 10° S
Cosmos 1726 3.3 04:20:41 10° N 04:24:12 42° ENE 04:27:43 10° SSE
ATLAS 2AS CENTAUR R/B 3.1 04:21:09 37° WSW 04:24:40 69° NW 04:32:40 10° NE
ADEOS II 3.7 04:20:43 10° N 04:23:00 19° NNW 04:23:00 19° NNW
Cosmos 2058 Rocket 4.0 04:20:40 10° N 04:24:59 50° ENE 04:29:18 10° SSE
Cosmos 1356 3.7 04:24:29 30° N 04:26:01 65° ENE 04:29:26 10° SSE
Cosmos 2369 Rocket 3.6 04:23:42 10° NNW 04:28:50 35° NE 04:33:57 10° ESE
Cosmos 1023 Rocket 4.3 04:28:53 29° SSW 04:31:34 86° WNW 04:36:44 10° NNE
Cosmos 2322 Rocket 4.3 04:31:15 12° NNW 04:31:57 12° NNW 04:33:56 10° N
Aureole 1 Rocket 4.5 04:33:01 27° NW 04:33:01 27° NW 04:36:04 10° N
Cosmos 1980 3.7 04:33:41 39° WSW 04:35:34 59° WNW 04:41:11 10° NNE
COSMOS 2455 4.0 04:36:25 24° NW 04:37:39 26° NNW 04:42:38 10° NNE
Cosmos 2074 Rocket 4.0 04:33:24 14° SSW 04:38:46 60° WNW 04:44:57 10° N
Cosmos 2360 Rocket 3.9 04:38:24 16° NW 04:38:53 16° NNW 04:42:17 10° N
COSMOS 2428 3.6 04:41:33 28° WNW 04:42:17 29° NW 04:47:13 10° NNE
Cosmos 1953 4.0 04:38:46 10° NNW 04:45:08 20° SSW 04:46:30 10° SSW
H-2A R/B 2.4 04:40:20 10° N 04:44:30 68° WNW 04:47:21 21° SSW
Cosmos 1707 2.8 04:45:26 49° W 04:45:40 50° WNW 04:49:31 10° N
Cosmos 1763 Rocket 4.3 04:41:38 10° NNW 04:46:43 52° ENE 04:51:41 10° SE
Cosmos 1892 Rocket 3.6 04:43:29 10° S 04:47:54 79° E 04:52:18 10° NNE
Meteor 1-31 Rocket 2.9 04:44:40 10° NNE 04:48:29 73° ESE 04:52:17 10° S
USA 267 3.2 04:43:33 10° ENE 04:50:05 74° NNW 04:54:09 25° WSW
IDEFIX/ARIANE 42P 2.9 04:45:52 10° N 04:50:49 43° WNW 04:53:16 26° WSW
Cosmos 1943 Rocket 2.9 04:45:34 10° NNW 04:51:09 54° NE 04:56:42 10° SE
BREEZE-M DEB (TANK) 1.6 04:53:44 83° W 04:53:48 90° NNW 04:56:20 10° E
Cosmos 1674 3.7 04:50:29 10° S 04:54:03 47° E 04:57:40 10° NNE
Cosmos 1606 Rocket 3.8 04:51:47 10° NNW 04:55:54 44° W 05:00:00 10° SSW
CZ-4B R/B 2.8 04:52:06 10° NNE 04:56:07 83° ESE 04:59:55 10° SSW
Cosmos 676 Rocket 3.9 04:53:54 13° SSW 04:58:41 68° WNW 05:03:55 10° NNE
Cosmos 1484 Rocket 3.7 05:00:13 10° NNE 05:03:57 50° E 05:07:42 10° S
Cosmos 407 Rocket 4.1 05:03:46 25° W 05:05:51 35° WNW 05:10:34 10° N
USA 116 4.5 05:04:09 10° SE 05:07:33 45° ENE 05:10:42 10° N
GP-B 3.0 05:05:10 10° S 05:09:36 75° W 05:14:04 10° N
ALOS 3.9 05:06:21 10° NNE 05:10:43 38° E 05:15:03 10° SSE
SL-16 R/B 2.1 05:07:18 10° SSW 05:12:58 78° WNW 05:18:42 10° NNE
Meteor 1-16 Rocket 4.4 05:10:58 10° NNW 05:15:59 44° W 05:21:03 10° SSW
MSX 4.1 05:10:57 10° N 05:16:20 44° WNW 05:21:43 10° SW
Meteor 1-24 Rocket 4.3 05:13:18 10° S 05:19:02 65° E 05:24:59 10° NNE
Cosmos 1300 4.2 05:15:47 10° N 05:19:25 40° ENE 05:23:02 10° SE
Cosmos 1626 Rocket 4.0 05:17:41 10° S 05:21:56 63° E 05:26:15 10° NNE
RESURS DK-1 2.6 05:20:11 14° SW 05:23:31 47° NW 05:27:32 10° NNE
Cosmos 2228 3.8 05:20:09 10° NNW 05:23:45 27° W 05:27:19 10° SSW
ASTEX 1 4.3 05:19:07 10° SSE 05:23:51 53° ENE 05:28:37 10° N
Cosmos 2297 4.3 05:18:42 10° NW 05:23:53 35° WSW 05:29:01 10° S
USA 234 3.9 05:20:01 10° SSE 05:25:54 35° SW 05:31:09 13° WNW
Helios 1A Rocket 3.7 05:23:24 10° NNE 05:27:32 56° ESE 05:31:36 10° S
Meteor 2-17 Rocket 4.4 05:23:38 10° SSW 05:29:41 77° W 05:35:47 10° N
Meteor 2-10 4.4 05:25:44 10° NNW 05:30:35 40° W 05:35:35 10° SSW
COSMO-SKYMED 1 2.6 05:26:35 10° S 05:30:53 62° WSW 05:35:12 10° NNW
Okean 1-7 Rocket 4.0 05:27:40 10° SW 05:31:52 40° WNW 05:36:09 10° N
Meteor PRIRODA 3.8 05:29:54 10° N 05:33:34 52° WNW 05:37:12 10° SSW
NOSS 3-4 (A) 4.0 05:30:23 14° W 05:35:18 42° NNW 05:41:33 10° NE
NOSS 3-4 (C) 4.0 05:30:27 14° W 05:35:24 42° NNW 05:41:40 10° NE
Cosmos 2333 Rocket 3.9 05:33:37 12° WNW 05:36:24 16° NNW 05:39:57 10° N
Cosmos 1850 Rocket 3.9 05:32:14 10° SSW 05:37:25 78° WNW 05:42:39 10° NNE
Cosmos 1140 Rocket 4.4 05:36:26 10° WSW 05:40:48 28° NW 05:45:15 10° N
ATLAS 3B R/B 4.0 05:37:58 12° WNW 05:41:00 17° WSW 05:45:01 10° SW
SL-14 R/B 3.9 05:37:33 10° S 05:41:24 60° E 05:45:16 10° NNE
Cosmos 44 Rocket 4.4 05:39:12 12° WNW 05:42:29 23° WSW 05:46:08 10° SSW
Cosmos 2218 Rocket 4.1 05:36:47 10° S 05:43:10 86° W 05:49:31 10° N
Cosmos 1943 4.4 05:39:36 10° S 05:45:02 47° ESE 05:50:29 10° NE
KORONAS-FOTON 4.0 05:42:42 10° SSW 05:46:22 48° WNW 05:50:04 10° N
MOS 1-B 4.3 05:40:40 10° NNE 05:46:29 74° WNW 05:52:15 10° SSW
Cosmos 2219 Rocket 4.0 05:45:30 10° WNW 05:48:23 14° NNW 05:51:16 10° N
CENTAUR R/B 4.4 05:44:10 10° WNW 05:49:11 18° WSW 05:54:22 10° SW
SJ-12 3.9 05:46:57 10° N 05:51:02 67° WNW 05:55:06 10° SSW
Cosmos 468 Rocket 4.4 05:46:18 10° NW 05:51:06 40° WSW 05:55:50 10° S
Meteor 1-4 Rocket 4.4 05:50:39 11° W 05:51:55 13° WNW 05:53:33 10° NW
Cosmos-2242 4.2 05:50:43 10° N 05:54:51 47° ENE 05:58:57 10° SSE
Cosmos 1437 Rocket 3.6 05:52:12 10° SW 05:55:27 26° WNW 05:58:44 10° N
ERBS 4.0 05:52:41 10° WNW 05:55:27 23° N 05:58:14 10° NE
Cosmos 1602 Rocket 3.5 05:52:38 10° SSW 05:56:57 72° W 06:01:17 10° N
Cosmos 1726 3.7 05:56:50 10° NW 05:59:06 16° W 06:01:22 10° SW
Cosmos 1727 Rocket 4.0 05:54:05 10° NNW 06:00:19 75° W 06:06:34 10° S
BREEZE-M DEB (TANK) 4.4 05:38:11 10° W 06:01:11 89° N 06:06:01 10° E
CZ-2C R/B 3.5 05:57:13 10° N 06:01:26 26° WNW 06:05:38 10° WSW
Cosmos 2237 Rocket 3.6 05:58:13 10° W 06:02:27 21° NW 06:06:42 10° N
Cosmos 2058 Rocket 4.4 05:59:29 10° NW 06:02:36 19° W 06:05:44 10° SW
SeaSat 1 4.4 05:59:21 10° NE 06:03:52 35° ESE 06:08:22 10° S
Okean O Rocket 1.6 05:59:45 10° N 06:04:09 72° WNW 06:08:30 10° SSW
Cosmos 1908 4.4 06:01:56 10° NW 06:04:52 21° W 06:07:47 10° SW
ADEOS Rocket 4.5 06:00:58 10° SE 06:08:02 52° ENE 06:15:30 10° N
